DW7780 Weather Reports


time (UTC)temp
C
wind
direction
speed
KPH
gust
KPH
rain 1hr
cm
rain 24hr
cm
rain mn
cm
humidity
%
barometer
mb
20260905223035 22 0 0.0 0.0 0.00 0.00 0.00 72 1010.7
20260905221538 23 0 0.0 0.0 0.00 0.00 0.00 70 1010.4
20260905220033 23 0 0.0 1.6 0.00 0.00 0.00 69 1010.3
20260905214536 23 0 0.0 0.0 0.00 0.00 0.00 69 1010.4
20260905213036 23 0 0.0 0.0 0.00 0.00 0.00 65 1010.4
20260905211534 24 0 0.0 0.0 0.00 0.00 0.00 63 1010.4
20260905210034 25 0 0.0 9.7 0.00 0.00 0.00 60 1010.3
20260905204533 25 0 0.0 4.8 0.00 0.00 0.00 59 1010.3
20260905203038 25 0 0.0 3.2 0.00 0.00 0.00 58 1010.3
20260905201535 25 0 0.0 3.2 0.00 0.00 0.00 57 1010.3
20260905200033 23 81 0.0 9.7 0.00 0.00 0.00 62 1010.4
20260905194531 24 0 0.0 3.2 0.00 0.00 0.00 65 1010.7
20260905193032 25 0 0.0 4.8 0.00 0.00 0.00 60 1010.8
20260905191533 25 0 0.0 8.0 0.00 0.00 0.00 62 1010.8
20260905190041 24 0 0.0 4.8 0.00 0.00 0.00 62 1010.8
20260905184532 24 0 0.0 9.7 0.00 0.00 0.00 65 1010.9
20260905183033 25 0 0.0 6.4 0.00 0.00 0.00 60 1011.0
20260905181534 25 74 0.0 4.8 0.00 0.00 0.00 64 1010.9
20260905180031 25 0 0.0 9.7 0.00 0.00 0.00 57 1011.0
20260905174535 25 0 0.0 8.0 0.00 0.00 0.00 61 1011.0
20260905173038 25 284 1.6 6.4 0.00 0.00 0.00 58 1011.0
20260905171531 25 0 0.0 11.3 0.00 0.00 0.00 59 1011.0
20260905170032 25 0 0.0 12.9 0.00 0.00 0.00 60 1011.1
20260905164533 24 269 0.0 9.7 0.00 0.00 0.00 59 1011.3
20260905163033 24 253 0.0 12.9 0.00 0.00 0.00 62 1011.6
20260905161534 24 0 3.2 16.1 0.00 0.00 0.00 61 1011.5
20260905160031 23 70 0.0 6.4 0.00 0.00 0.00 62 1011.7
20260905154531 23 0 0.0 6.4 0.00 0.00 0.00 66 1011.6
20260905153036 23 0 0.0 14.5 0.00 0.00 0.00 65 1011.7
20260905151535 23 0 0.0 11.3 0.00 0.00 0.00 65 1011.5
20260905150031 23 294 1.6 9.7 0.00 0.00 0.00 66 1011.5
20260905144535 23 0 0.0 12.9 0.00 0.00 0.00 65 1011.3
20260905143034 23 0 0.0 11.3 0.00 0.00 0.00 66 1011.5
20260905141541 22 298 1.6 9.7 0.00 0.00 0.00 68 1011.5
20260905140034 22 0 0.0 12.9 0.00 0.00 0.00 70 1011.4
20260905134535 22 0 0.0 8.0 0.00 0.00 0.00 71 1011.4
20260905133034 22 0 0.0 0.0 0.00 0.00 0.00 77 1011.3
20260905131545 21 0 0.0 0.0 0.00 0.00 0.00 79 1011.3
20260905130035 21 0 0.0 0.0 0.00 0.00 0.00 81 1011.4
20260905124544 20 0 0.0 0.0 0.00 0.00 0.00 84 1011.4
20260905123042 20 0 0.0 0.0 0.00 0.00 0.00 87 1011.6
20260905121534 20 0 0.0 0.0 0.00 0.00 0.00 87 1011.6
20260905120034 20 0 0.0 0.0 0.00 0.00 0.00 87 1011.7
20260905114541 20 0 0.0 0.0 0.00 0.00 0.00 87 1011.5
20260905113039 20 0 0.0 0.0 0.00 0.00 0.00 87 1011.3
20260905111540 20 0 0.0 0.0 0.00 0.00 0.00 86 1011.2
20260905110031 20 0 0.0 0.0 0.00 0.00 0.00 86 1011.1
20260905104530 20 0 0.0 0.0 0.00 0.00 0.00 86 1010.9
20260905103033 20 0 0.0 0.0 0.00 0.00 0.00 85 1010.7
20260905101539 20 0 0.0 0.0 0.00 0.00 0.00 85 1010.6
20260905100034 20 0 0.0 0.0 0.00 0.00 0.00 85 1010.6
20260905094531 20 0 0.0 0.0 0.00 0.00 0.00 86 1010.5
20260905093035 20 0 0.0 0.0 0.00 0.00 0.00 85 1010.7
20260905091531 21 0 0.0 0.0 0.00 0.00 0.00 84 1010.6
20260905090035 21 0 0.0 0.0 0.00 0.00 0.00 83 1010.5
20260905084556 21 0 0.0 0.0 0.00 0.00 0.00 81 1010.5
20260905083031 21 0 0.0 0.0 0.00 0.00 0.00 80 1010.3
20260905081531 21 0 0.0 0.0 0.00 0.00 0.00 81 1010.1
20260905080034 21 0 0.0 0.0 0.00 0.00 0.00 82 1010.3
20260905074533 21 0 0.0 0.0 0.00 0.00 0.00 85 1010.4
20260905073035 21 0 0.0 0.0 0.00 0.00 0.00 84 1010.3
20260905071531 21 0 0.0 0.0 0.00 0.00 0.00 85 1010.6
20260905070033 21 0 0.0 0.0 0.00 0.00 0.00 87 1010.6
20260905064532 21 0 0.0 0.0 0.00 0.00 0.00 86 1010.5
20260905063032 21 0 0.0 0.0 0.00 0.00 0.00 86 1010.6
20260905061533 21 0 0.0 0.0 0.00 0.00 0.00 87 1010.6
20260905060035 21 0 0.0 0.0 0.00 0.00 0.00 88 1010.7
20260905054531 21 0 0.0 0.0 0.00 0.05 0.00 89 1010.8
20260905053032 21 0 0.0 0.0 0.00 0.05 0.00 89 1011.0
20260905051537 21 0 0.0 0.0 0.00 0.05 0.00 88 1011.3
20260905050034 21 0 0.0 0.0 0.00 0.05 0.00 88 1011.2
20260905044535 22 0 0.0 0.0 0.00 0.05 0.00 88 1011.1
20260905043033 22 0 0.0 0.0 0.00 0.05 0.00 90 1011.2
20260905041536 22 0 0.0 0.0 0.00 0.05 0.00 90 1011.3
20260905040034 22 0 0.0 0.0 0.00 0.05 0.00 90 1011.4
20260905034539 22 0 0.0 0.0 0.00 0.05 0.05 91 1011.4
20260905033033 22 0 0.0 0.0 0.00 0.05 0.05 91 1011.4
20260905031537 22 0 0.0 0.0 0.00 0.05 0.05 91 1011.3
20260905030037 22 0 0.0 0.0 0.00 0.05 0.05 90 1011.3
20260905024534 22 0 0.0 0.0 0.00 0.05 0.05 90 1011.1
20260905023039 22 0 0.0 0.0 0.00 0.05 0.05 91 1011.3
20260905021540 22 0 0.0 0.0 0.00 0.05 0.05 90 1011.2
20260905020034 22 0 0.0 0.0 0.00 0.05 0.05 90 1011.3
20260905014534 22 0 0.0 0.0 0.00 0.05 0.05 90 1011.4
20260905013033 23 0 0.0 0.0 0.00 0.05 0.05 90 1011.3
20260905011536 23 0 0.0 0.0 0.00 0.05 0.05 90 1011.3
20260905010033 23 0 0.0 0.0 0.00 0.05 0.05 90 1011.3
20260905004540 23 0 0.0 0.0 0.00 0.05 0.05 89 1011.2
20260905003034 23 0 0.0 0.0 0.00 0.05 0.05 88 1011.2
20260905001531 23 0 0.0 0.0 0.00 0.05 0.05 87 1011.0
20260905000033 23 0 0.0 0.0 0.00 0.05 0.05 87 1010.8
20260904234545 24 0 0.0 0.0 0.00 0.05 0.05 86 1010.7
20260904233051 24 0 0.0 0.0 0.00 0.05 0.05 84 1010.7
20260904231534 25 0 0.0 0.0 0.00 0.05 0.05 85 1010.6
20260904230035 25 0 0.0 0.0 0.00 0.05 0.05 84 1010.7
20260904224541 25 0 0.0 0.0 0.00 0.08 0.05 83 1010.7